Location: *
(38.9555°S, 57.3572°E)
Time: 01:47:02
(UTC+00:00)

Lacrosse 5 - Pass Details

Date: 15 July 2020
Orbit: 717 x 720 km, 57.0° (Epoch: 04 August)

Event Time Altitude Azimuth Distance (km) Brightness Sun altitude
Rises 13:31:54 0° 217° (SW) 3,160 5.4 -5.1°
Reaches altitude 10° 13:34:45 10° 202° (SSW) 2,235 4.4 -5.6°
Maximum altitude 13:38:52 23° 149° (SSE) 1,508 3.1 -6.3°
Drops below altitude 10° 13:42:57 10° 96° (E) 2,221 3.8 -7.1°
Enters shadow 13:43:51 - 90° (E) 2,497 4.1 -7.2°
